Home   Weather   Arden-Arcade   Past weeks

Flag for USA Past Weather in Arden-Arcade, California, USA — Yesterday and Last 2 Weeks

Now
48 °F

Mostly cloudy.


Feels Like: 45 °F
Forecast: 40 / 54 °F
Wind: 7 mph from South

Location: Mather Field

Current Time: Feb 22, 2017 at 12:45:35 am

Latest Report: Feb 21, 2017 at 11:30 pm


Visibility: 10 mi

Pressure: 30.22 "Hg

Humidity: 100%

Dew Point: 48 °F

Location of Arden-ArcadeLocation

Past Weather in Arden-Arcade — Graph

°F

Arden-Arcade Temperature Yesterday

Maximum temperature yesterday: 57 °F (at 10:55 am)
Minimum temperature yesterday: 48 °F (at 8:45 pm)
Average temperature yesterday: 53 °F

High & Low Weather Summary for the Past Weeks

 TemperatureHumidityPressure
High66 °F (Feb 14, 2:51 pm)100% (Feb 7, 2:45 am)30.26 "Hg (Feb 7, 2:45 am)
Low36 °F (Feb 12, 6:45 am)45% (Feb 11, 3:50 pm)29.21 "Hg (Feb 17, 4:45 pm)
Average55 °F88%29.96 "Hg
* Reported Feb 7 2:45 am — Feb 21 11:30 pm, Arden-Arcade, Weather by CustomWeather, © 2017

Note: Actual official high and low records may vary slightly from our data, if they occured in-between our weather recording intervals... More about our weather records

Advertising

Arden-Arcade Weather History for the Previous 24 Hours

Scroll right to see more
 ConditionsComfort  
Time TempWeatherWind HumidityBarometerVisibility
11:30 pm
Tue, Feb 21
48 °FMostly cloudy.7 mph100%30.22 "Hg10 mi
10:50 pm48 °FMostly cloudy.6 mph100%30.22 "Hg10 mi
9:45 pm48 °FOvercast.8 mph100%30.22 "Hg10 mi
8:45 pm48 °FMostly cloudy.6 mph100%30.21 "Hg10 mi
7:45 pm50 °FMostly cloudy.9 mph94%30.20 "Hg10 mi
6:45 pm50 °FMostly cloudy.6 mph94%30.20 "Hg10 mi
5:45 pm54 °FPartly sunny.6 mph82%30.19 "Hg10 mi
4:50 pm54 °FPartly sunny.5 mph88%30.18 "Hg10 mi
3:45 pm54 °FCool.5 mph82%30.19 "HgN/A
2:59 pm54 °FPassing clouds.10 mph88%30.18 "Hg10 mi
1:51 pm55 °FBroken clouds.20 mph77%30.18 "Hg10 mi
12:55 pm57 °FBroken clouds.12 mph88%30.19 "Hg10 mi
12:33 pm54 °FLight rain. Broken clouds.8 mph88%30.20 "Hg10 mi
11:56 am57 °FBroken clouds.9 mph77%30.21 "Hg10 mi
10:55 am57 °FOvercast.10 mph72%30.22 "Hg10 mi
9:45 am55 °FOvercast.12 mph82%30.21 "Hg10 mi
8:50 am55 °FScattered clouds.14 mph82%30.18 "Hg10 mi
7:45 am52 °FScattered clouds.12 mph94%30.17 "Hg10 mi
6:45 am50 °FScattered showers. Partly cloudy.12 mph94%30.16 "Hg10 mi
5:45 am52 °FScattered showers. Fog.14 mph88%30.12 "Hg6 mi
4:45 am54 °FSprinkles. Mostly cloudy.9 mph88%30.12 "Hg10 mi
2:55 am54 °FPartly cloudy.12 mph88%30.09 "Hg10 mi
Weather by CustomWeather, © 2017

See weather overviewHow to use our weather pages